FW8918 Weather Reports


time (UTC)temp
C
wind
direction
speed
KPH
gust
KPH
rain 1hr
cm
rain 24hr
cm
rain mn
cm
humidity
%
barometer
mb
20260504014527 7 294 3.2 9.7 0.00 0.58 0.08 96 1009.5
20260504013035 7 6 4.8 14.5 0.00 0.58 0.08 96 1009.4
20260504011530 7 321 3.2 14.5 0.00 0.58 0.08 96 1009.1
20260504010027 7 1 3.2 9.7 0.00 0.58 0.08 96 1009.0
20260504004539 7 271 4.8 12.9 0.00 0.58 0.08 96 1008.7
20260504003028 8 1 4.8 9.7 0.03 0.58 0.08 96 1008.6
20260504001535 8 311 6.4 12.9 0.03 0.56 0.05 96 1008.5
20260504000029 8 318 1.6 11.3 0.03 0.56 0.05 96 1008.4
20260503234529 8 6 3.2 6.4 0.03 0.56 0.05 96 1008.2
20260503233029 8 8 3.2 8.0 0.00 0.56 0.03 96 1008.3
20260503231530 8 34 1.6 8.0 0.00 0.53 0.00 96 1008.2
20260503230028 8 31 3.2 11.3 0.00 0.53 0.00 96 1008.1
20260503224528 9 18 3.2 11.3 0.00 0.53 0.00 96 1008.2
20260503223028 9 50 3.2 9.7 0.00 0.53 0.00 96 1008.3
20260503221534 10 348 1.6 8.0 0.00 0.51 0.00 96 1008.3
20260503220036 10 349 1.6 8.0 0.08 0.51 0.00 96 1008.5
20260503214542 10 8 4.8 19.3 0.08 0.51 0.51 96 1008.6
20260503213033 10 338 6.4 11.3 0.15 0.48 0.48 96 1008.6
20260503211528 10 0 0.0 6.4 0.18 0.48 0.48 96 1008.3
20260503210035 10 70 0.0 6.4 0.10 0.43 0.43 96 1008.2
20260503204530 10 0 1.6 4.8 0.08 0.41 0.41 96 1008.2
20260503203029 10 56 3.2 9.7 0.03 0.33 0.33 96 1008.2
20260503201528 10 49 1.6 9.7 0.00 0.30 0.30 96 1008.4
20260503200028 10 73 1.6 11.3 0.05 0.30 0.30 96 1008.3
20260503194534 10 56 0.0 4.8 0.08 0.30 0.30 96 1008.5
20260503193030 10 59 1.6 8.0 0.08 0.28 0.28 96 1008.7
20260503191527 10 76 4.8 9.7 0.13 0.28 0.28 95 1008.7
20260503190038 10 60 4.8 11.3 0.10 0.25 0.25 95 1008.7
20260503184526 10 0 3.2 8.0 0.10 0.23 0.23 95 1009.0
20260503183036 10 0 0.0 4.8 0.08 0.18 0.18 95 1009.1
20260503181549 11 0 0.0 3.2 0.08 0.15 0.15 95 1009.0
20260503180041 11 25 0.0 3.2 0.05 0.13 0.13 94 1009.1
20260503174529 11 0 0.0 4.8 0.03 0.10 0.10 94 1009.1
20260503173031 11 0 1.6 8.0 0.00 0.08 0.08 94 1009.2
20260503171530 11 314 1.6 6.4 0.00 0.08 0.08 94 1009.4
20260503081529 9 276 1.6 4.8 0.00 0.00 0.00 96 1013.0
20260503071527 8 224 0.0 3.2 0.00 0.00 0.00 96 1012.8
20260503054537 8 0 0.0 1.6 0.00 0.00 0.00 96 1012.4
20260503053030 8 326 1.6 4.8 0.00 0.00 0.00 96 1012.5
20260503051527 8 0 0.0 3.2 0.00 0.00 0.00 96 1012.4
20260503050030 8 0 1.6 3.2 0.00 0.00 0.00 96 1012.5
20260503044531 8 305 0.0 6.4 0.00 0.00 0.00 96 1012.5
20260503043030 8 318 1.6 6.4 0.00 0.00 0.00 96 1012.5
20260503041530 8 0 0.0 4.8 0.00 0.00 0.00 96 1012.5
20260503040032 8 251 1.6 6.4 0.00 0.00 0.00 96 1012.7
20260503034528 8 267 3.2 6.4 0.00 0.00 0.00 96 1012.7
20260503033027 8 232 1.6 9.7 0.00 0.00 0.00 96 1012.7
20260503031531 8 238 0.0 8.0 0.00 0.00 0.00 96 1013.0
20260503030033 8 0 1.6 4.8 0.00 0.00 0.00 95 1012.9
20260503024531 8 273 3.2 9.7 0.00 0.00 0.00 95 1012.9
20260503023029 8 245 3.2 8.0 0.00 0.00 0.00 95 1013.1
20260503021528 8 290 4.8 8.0 0.00 0.00 0.00 95 1013.0
20260503020030 8 343 1.6 8.0 0.00 0.00 0.00 95 1012.9